Home   Weather   New Haven   Past weeks
Flag for USA

Past Weather in New Haven, Connecticut, USA — Yesterday and Last 2 Weeks

Now
68 °F

Passing clouds.


Feels Like: 68 °F
Forecast: 68 / 64 °F
Wind: No wind

Location: Tweed-New Haven Airport

Current Time: Jun 18, 2019 at 12:56:02 am

Latest Report: Jun 17, 2019 at 11:53 pm


Visibility: 10 mi

Pressure: 30.00 "Hg

Humidity: 87%

Dew Point: 64 °F

Location of New HavenLocation

Past Weather in New Haven — Graph

°F

New Haven Temperature Yesterday

Maximum temperature yesterday: 79 °F (at 11:53 am)
Minimum temperature yesterday: 68 °F (at 4:53 am)
Average temperature yesterday: 73 °F

High & Low Weather Summary for the Past Weeks

 TemperatureHumidityPressure
High85 °F (Jun 6, 3:53 pm)97% (Jun 10, 9:53 pm)30.35 "Hg (Jun 10, 9:53 pm)
Low45 °F (Jun 4, 4:53 am)27% (Jun 12, 3:53 pm)29.66 "Hg (Jun 6, 7:53 am)
Average67 °F71%29.96 "Hg
* Reported Jun 2 10:13 pm — Jun 17 10:53 pm, New Haven. Weather by CustomWeather, © 2019

Note: Actual official high and low records may vary slightly from our data, if they occured in-between our weather recording intervals... More about our weather records

Advertising

New Haven Weather History for the Previous 24 Hours

Scroll right to see more
 ConditionsComfort  
Time TempWeatherWind HumidityBarometerVisibility
10:53 pm
Mon, Jun 17
68 °FClear.No wind84%29.98 "Hg10 mi
9:53 pm70 °FPassing clouds.3 mph81%29.98 "Hg10 mi
8:53 pm70 °FPassing clouds.No wind79%29.98 "Hg10 mi
7:53 pm73 °FScattered clouds.6 mph69%29.97 "Hg10 mi
6:53 pm74 °FSunny.6 mph71%29.96 "Hg10 mi
5:53 pm74 °FBroken clouds.8 mph71%29.97 "Hg10 mi
4:53 pm76 °FPassing clouds.6 mph67%29.98 "Hg10 mi
3:53 pm76 °FPartly sunny.7 mph64%29.99 "Hg10 mi
2:53 pm76 °FScattered clouds.8 mph64%29.99 "Hg10 mi
1:53 pm76 °FScattered clouds.6 mph67%29.98 "Hg10 mi
12:53 pm78 °FPassing clouds.9 mph60%29.98 "Hg10 mi
11:53 am79 °FPartly sunny.6 mph56%29.97 "Hg10 mi
10:53 am76 °FOvercast.5 mph60%29.98 "Hg10 mi
9:53 am74 °FSunny.3 mph67%29.97 "Hg10 mi
8:53 am73 °FSunny.13 mph66%29.93 "Hg10 mi
7:53 am72 °FOvercast.8 mph78%29.94 "Hg10 mi
6:53 am72 °FOvercast.5 mph81%29.93 "Hg10 mi
5:53 am69 °FOvercast.No wind90%29.90 "Hg10 mi
4:53 am68 °FPassing clouds.No wind90%29.88 "Hg10 mi
3:53 am70 °FPartly cloudy.No wind84%29.86 "Hg10 mi
2:53 am71 °FOvercast.6 mph84%29.86 "Hg10 mi
1:53 am71 °FOvercast.6 mph90%29.84 "Hg10 mi
12:53 am71 °FFog.No wind90%29.84 "Hg6 mi
Weather by CustomWeather, © 2019

See weather overview